Printer-friendly version
Follow the MPC on Twitter Follow the MPC on Facebook The MPC blog
Minor Planet Center

MPEC 2003-L50 : 2003 LO6

The following Minor Planet Electronic Circular may be linked-to from your own Web pages, but must not otherwise be redistributed electronically.

A form allowing access to any MPEC is at the bottom of this page.


Read MPEC 2003-L49 Read MPEC 2003-L51


M.P.E.C. 2003-L50                                Issued 2003 June 12, 19:52 UT

     The Minor Planet Electronic Circulars contain information on unusual
         minor planets and routine data on comets.  They are published
   on behalf of Commission 20 of the International Astronomical Union by the
          Minor Planet Center, Smithsonian Astrophysical Observatory,
                          Cambridge, MA 02138, U.S.A.

             Prepared using the Tamkin Foundation Computer Network

                              MPC@CFA.HARVARD.EDU
          URL http://cfa-www.harvard.edu/iau/mpc.html  ISSN 1523-6714

                                   2003 LO6

Observations:
     K03L06O* C2003 06 10.39523 22 22 28.28 +30 28 47.4          19.0        704
     K03L06O  C2003 06 10.40554 22 22 28.94 +30 29 14.4          19.1        704
     K03L06O  C2003 06 10.41582 22 22 29.58 +30 29 42.8          18.9        704
     K03L06O 1C2003 06 10.73779 22 22 51.09 +30 44 13.5                      413
     K03L06O 1C2003 06 10.73964 22 22 51.20 +30 44 18.6                      413
     K03L06O 1C2003 06 10.74149 22 22 51.31 +30 44 23.4          18.5 R      413
     K03L06O  C2003 06 10.99162 22 23 08.19 +30 55 17.7                      557
     K03L06O  C2003 06 10.99348 22 23 08.25 +30 55 22.1                      557
     K03L06O  C2003 06 11.06507 22 23 12.98 +30 58 35.2          18.2 R      620
     K03L06O  C2003 06 11.07952 22 23 13.91 +30 59 13.9          18.3 R      620
     K03L06O  C2003 06 11.30561 22 23 28.60 +31 09 15.5          19.7 R      854
     K03L06O  C2003 06 11.30742 22 23 29.07 +31 09 17.6          19.5 R      854
     K03L06O  C2003 06 11.30922 22 23 29.28 +31 09 24.4          19.5 R      854
     K03L06O  C2003 06 11.37462 22 23 33.30 +31 12 17.4          19.3        704
     K03L06O 5C2003 06 11.37928 22 23 33.68 +31 12 30.2          19.0 R      673
     K03L06O  C2003 06 11.38483 22 23 33.95 +31 12 45.1          19.5        704
     K03L06O 5C2003 06 11.39444 22 23 34.63 +31 13 08.8          19.0 R      673
     K03L06O  C2003 06 11.39492 22 23 34.60 +31 13 11.3          19.5        704
     K03L06O  C2003 06 11.40517 22 23 35.31 +31 13 39.4          19.4        704
     K03L06O 5C2003 06 11.40752 22 23 35.43 +31 13 42.9          19.0 R      673
     K03L06O 1C2003 06 11.75671 22 23 57.90 +31 29 17.7                      413
     K03L06O 1C2003 06 11.76041 22 23 58.12 +31 29 27.7                      413
     K03L06O  C2003 06 12.03400 22 24 16.00 +31 41 14.9                      557
     K03L06O  C2003 06 12.03587 22 24 16.00 +31 41 20.7                      557
     K03L06O  C2003 06 12.03774 22 24 16.16 +31 41 25.0                      557

Observer details:
413 Siding Spring.  Observer R. H. McNaught.  1.0-m f/8 reflector + CCD.
557 Ondrejov.  Observer L. Sarounova.  0.65-m f/3.6 reflector + CCD.
620 Observatorio Astronomico de Mallorca.  Observers S. Sanchez, R. Stoss,
    J. Nomen.  0.30-m f/9 Schmidt-Cassegrain + CCD.
673 Table Mountain Observatory, Wrightwood.  Observer J. Young.  0.6-m
    reflector + CCD.
704 Lincoln Laboratory ETS, New Mexico.  Observers M. Blythe, F. Shelly,
    M. Bezpalko, R. Huber, L. Manguso, S. Adams, D. Torres, T. Brothers,
    S. Partridge.  Measurers J. Stuart, R. Sayer, J. Evans, P. Hopman.  1.0-m
    f/2.15 reflector + CCD.
854 Sabino Canyon Observatory, Tucson.  Observer J. E. McGaha.  0.30-m f/10.0
    Schmidt-Cassegrain + CCD.

Orbital elements:
2003 LO6
Epoch 2003 June 10.0 TT = JDT 2452800.5                 MPC
M  10.59293              (2000.0)            P               Q
n   0.21925666     Peri.    6.03430     -0.18353462     +0.81637948
a   2.7237517      Node   254.43457     -0.92399828     -0.33337299
e   0.5451235      Incl.   34.64035     -0.33547313     +0.47157927
P   4.50           H   17.0           G   0.15
From 23 observations 2003 June 10-12.

Ephemeris:
2003 LO6                 a,e,i = 2.72, 0.55, 35                  q = 1.2390
Date    TT    R. A. (2000) Decl.     Delta      r     Elong.  Phase     V
2003 06 10    22 22.02   +30 11.1    0.923    1.353    88.4    48.6    19.3
2003 06 20    22 31.70   +37 11.8    0.951    1.400    90.7    46.5    19.4
2003 06 30    22 37.62   +43 13.6    0.983    1.453    93.2    44.3    19.5
2003 07 10    22 39.13   +48 14.0    1.015    1.510    96.0    42.0    19.6
2003 07 20    22 35.76   +52 10.9    1.047    1.570    99.1    39.7    19.7
2003 07 30    22 27.43   +55 00.7    1.078    1.634   102.5    37.4    19.7
2003 08 09    22 15.00   +56 38.8    1.109    1.699   106.2    35.0    19.8
2003 08 19    22 00.55   +57 03.2    1.142    1.765   109.9    32.6    19.9
2003 08 29    21 46.73   +56 16.2    1.178    1.833   113.6    30.3    20.0
2003 09 08    21 36.02   +54 26.5    1.219    1.900   116.8    28.2    20.1
2003 09 18    21 29.81   +51 48.5    1.269    1.968   119.4    26.4    20.2
2003 09 28    21 28.35   +48 38.0    1.330    2.036   120.9    25.0    20.3
2003 10 08    21 31.21   +45 11.6    1.404    2.103   121.2    24.0    20.5
2003 10 18    21 37.62   +41 43.9    1.493    2.169   119.9    23.5    20.7
2003 10 28    21 46.80   +38 26.0    1.597    2.235   117.4    23.3    20.9
2003 11 07    21 58.09   +35 26.3    1.716    2.300   113.6    23.3    21.1
2003 11 17    22 10.89   +32 49.8    1.849    2.364   109.0    23.3    21.3
2003 11 27    22 24.79   +30 38.5    1.995    2.427   103.7    23.3    21.5
2003 12 07    22 39.47   +28 52.8    2.152    2.489    98.0    23.1    21.7
2003 12 17    22 54.65   +27 31.3    2.317    2.550    92.1    22.7    21.9

Timothy B. Spahr             (C) Copyright 2003 MPC           M.P.E.C. 2003-L50

Read MPEC 2003-L49 Read MPEC 2003-L51


MPEC number:

Enter an MPEC number in one of the following forms:

  • 1997-B01 (the full form)
  • J97B01 (the packed version of the full form)
  • B01 (the abbreviated form)

Valid HTML 4.01!